Theta_e
340 340 341 341 340 341 340 340 339 338 338 337 336 334 332 332 331 330 331 331 333 335 335 335 336 337 337 338 339 339 339 338 338 339 339 339 339 339 340 340 340 339 339 339 340 340 340 341 340 341 342 343 343 343 342 341 340 341 340 341 342 342 342 342 343 344 344 343 343 342 342 342 343 343 343 342 343 342 342 342 342 342 341 339 338
340 340 340 340 339 340 339 339 338 338 336 335 334 333 333 332 331 329 328 328 329 331 332 333 335 336 337 338 338 339 339 339 339 339 339 339 340 340 340 340 339 338 339 339 340 340 340 341 341 340 341 342 341 340 339 338 338 338 338 339 340 341 342 342 343 343 343 343 343 342 342 342 342 342 342 342 342 342 341 341 341 342 340 337 336
340 340 339 339 338 338 339 339 338 338 336 336 334 334 333 333 333 331 330 328 328 328 330 331 333 335 336 337 337 338 339 339 339 339 339 339 340 339 340 339 338 338 338 339 339 341 340 340 340 340 340 340 339 338 337 336 337 336 337 338 340 341 341 343 343 343 343 343 342 343 343 342 342 342 341 341 342 341 341 340 341 341 338 336 335
340 339 340 340 338 337 338 338 337 336 335 335 334 334 333 334 334 334 333 331 330 329 329 330 331 333 335 336 336 337 338 339 338 339 338 338 339 339 338 338 337 337 338 339 340 340 339 339 340 339 339 339 338 338 337 337 337 337 338 339 340 340 341 342 342 342 343 343 343 343 342 342 342 342 341 341 341 340 339 339 340 339 337 336 334
339 338 340 340 338 336 335 335 334 334 334 334 334 334 333 334 335 335 335 332 331 331 329 329 330 331 333 335 335 337 337 338 338 339 338 338 338 338 337 337 336 336 338 340 340 340 339 339 339 339 338 339 339 338 338 337 337 338 338 340 340 340 341 341 340 341 342 342 343 343 341 341 342 342 341 341 341 340 340 339 338 337 336 336 334
338 338 338 339 338 334 331 332 331 333 334 333 333 333 332 334 334 334 333 331 330 331 330 329 330 331 332 334 335 336 337 337 337 338 338 338 338 338 337 337 336 336 338 340 339 340 339 339 338 338 338 339 340 338 337 337 336 338 339 339 340 340 341 340 339 341 341 341 342 341 341 340 341 341 341 341 341 341 340 339 338 336 335 334 335
337 337 337 338 337 332 330 331 331 333 334 334 334 334 334 334 334 332 331 331 331 331 330 330 332 334 334 335 335 335 336 337 337 337 337 336 338 338 338 338 338 337 339 339 339 340 339 339 339 338 338 339 339 337 337 337 337 338 338 339 340 340 340 339 338 339 340 341 340 340 341 340 340 339 340 339 339 340 339 338 337 336 335 335 336
336 337 337 337 335 332 332 333 333 334 334 335 334 332 332 331 331 331 331 330 330 330 329 330 333 335 335 335 336 336 336 336 336 337 336 336 337 337 338 339 339 338 338 338 338 340 340 339 338 337 338 337 337 337 337 337 338 338 338 339 340 340 339 338 336 337 339 340 339 340 340 341 341 338 337 337 338 339 338 336 337 337 337 337 338
336 338 337 336 334 332 333 334 333 333 332 331 329 327 327 328 329 331 330 329 329 329 329 330 332 333 333 334 335 336 336 335 336 336 336 336 336 337 338 338 339 339 338 337 338 339 339 338 338 337 336 336 337 336 336 337 337 338 339 340 340 339 338 337 335 337 339 340 340 340 339 339 340 339 335 335 338 338 337 336 337 338 337 337 338
336 337 336 335 332 327 327 327 326 326 326 324 323 323 324 327 329 330 330 330 330 331 332 332 332 333 333 333 333 334 335 335 335 335 336 336 336 337 336 337 338 338 337 336 338 339 339 339 338 337 336 336 336 335 335 336 337 338 339 340 340 338 336 335 334 337 340 339 339 340 338 336 337 338 334 334 338 338 337 337 338 338 338 337 337
335 335 334 333 327 323 323 323 323 323 323 324 325 326 326 329 331 332 332 332 333 333 334 334 334 334 335 335 334 334 334 334 335 334 335 336 337 337 336 337 336 336 336 335 337 339 339 339 339 337 336 336 335 336 335 335 336 338 339 340 339 338 336 336 336 337 339 337 336 339 339 335 332 331 330 335 339 338 337 337 338 338 337 337 337
333 333 334 334 328 325 327 327 327 327 328 329 329 330 330 332 333 333 332 332 333 333 334 335 335 335 335 336 336 336 335 335 335 335 335 336 336 337 336 337 336 334 335 335 335 337 337 337 337 336 336 335 335 335 335 335 336 337 338 339 339 338 337 336 338 338 339 337 336 338 338 337 332 325 327 335 339 336 335 336 337 337 337 337 337
333 333 334 336 333 329 330 330 330 329 329 329 329 331 331 333 333 333 333 332 330 329 330 331 334 335 336 336 336 336 336 335 335 335 335 335 335 336 336 337 336 334 334 336 335 334 335 336 335 335 336 334 334 334 334 335 335 335 336 337 337 336 336 337 339 339 338 337 338 339 338 338 335 326 325 333 337 334 333 335 337 337 336 336 336
333 334 334 335 335 332 330 331 330 330 330 330 330 331 332 333 334 334 334 331 327 326 326 327 330 333 335 336 336 336 337 336 335 335 335 335 334 335 336 336 337 336 334 335 335 334 333 335 335 335 335 334 335 334 334 334 334 334 335 336 335 334 335 336 339 337 334 334 338 339 337 339 337 329 326 332 336 334 333 336 337 337 335 335 335
333 334 334 335 336 334 332 331 331 331 331 331 331 332 332 333 334 335 334 329 326 326 325 325 327 330 332 333 334 335 336 336 336 335 335 335 334 334 335 336 337 337 336 334 334 334 333 335 335 335 334 334 335 335 334 333 333 334 334 335 335 334 335 336 338 337 334 334 336 338 338 339 337 330 329 332 334 335 336 337 338 337 335 335 335
335 334 335 335 336 335 334 332 330 331 331 331 331 331 332 332 334 334 331 327 326 326 325 325 325 327 329 330 331 331 333 335 336 336 335 335 335 334 334 334 336 337 336 335 333 333 335 335 334 334 335 335 335 334 334 333 334 335 335 335 335 335 335 338 341 338 335 335 335 336 338 339 336 332 331 334 335 337 337 336 337 336 335 336 335
336 334 334 335 333 332 330 329 328 328 329 329 329 331 332 332 333 331 328 326 326 325 324 323 323 323 324 326 328 329 330 332 335 336 335 335 334 334 333 333 335 336 335 335 334 334 335 335 333 333 335 335 335 334 333 333 334 335 336 335 334 335 334 337 341 339 335 335 336 336 337 338 337 334 334 335 336 337 337 337 336 335 335 336 335
334 333 333 334 331 328 327 325 325 325 326 328 329 331 331 331 330 328 326 324 322 319 319 318 318 320 321 323 326 327 328 331 333 334 335 335 335 335 334 333 333 334 334 335 334 333 334 334 334 334 335 335 334 334 333 332 333 334 335 335 335 335 333 336 341 341 338 337 338 338 339 338 337 336 335 336 337 337 338 338 337 336 336 336 334
333 333 333 333 331 328 327 326 326 326 327 330 333 332 329 328 326 324 321 319 317 316 315 316 317 318 319 321 323 327 328 330 332 333 334 335 336 337 336 334 334 333 334 335 334 333 333 333 334 335 334 334 334 334 334 332 332 331 332 334 334 335 335 338 341 341 340 340 340 340 341 339 336 336 337 338 338 337 338 338 338 336 336 336 333
334 333 332 332 331 329 328 327 327 328 329 329 331 330 325 323 321 319 318 317 316 316 317 320 322 321 320 320 323 328 329 330 331 331 331 332 334 336 336 335 335 335 334 335 334 333 333 333 334 334 334 334 333 333 334 333 332 332 332 332 332 335 338 340 341 340 340 340 339 340 340 337 336 337 337 338 337 336 336 338 338 336 336 336 334
334 333 332 330 329 329 327 326 325 325 325 325 326 325 321 321 321 320 319 318 316 318 321 323 324 324 323 323 324 327 329 329 331 331 331 331 333 334 335 335 335 335 334 335 334 333 333 333 333 334 334 334 333 334 335 334 332 332 333 333 333 337 340 339 339 338 339 339 338 339 338 335 336 338 337 336 337 336 336 337 337 336 336 336 336
333 331 330 329 328 328 326 325 324 323 324 324 325 324 323 323 324 323 321 320 320 321 323 324 324 324 324 324 325 326 327 328 329 331 330 331 332 332 333 333 333 333 333 334 334 334 334 333 334 334 334 333 334 337 337 336 334 332 332 334 337 339 339 339 339 337 338 338 338 338 336 335 336 337 337 337 336 337 337 337 336 336 335 336 336
331 329 329 329 328 326 326 325 324 325 326 326 326 325 326 326 325 325 324 323 323 323 324 325 324 325 325 325 325 324 326 327 327 328 328 329 331 330 331 331 331 331 332 332 332 333 333 333 333 332 333 334 336 339 337 338 338 335 334 336 338 338 338 338 338 338 338 337 339 338 335 335 336 337 337 337 337 337 337 337 337 336 335 336 336
330 328 328 328 327 326 327 326 326 327 326 326 326 325 326 326 325 325 324 324 324 324 324 325 325 325 325 325 324 324 325 325 327 328 328 329 330 330 330 332 334 332 332 335 334 333 333 335 333 332 334 336 337 337 336 337 337 337 337 337 338 338 338 338 338 339 338 338 339 337 334 335 336 337 337 336 337 337 337 336 337 337 335 336 336
329 328 327 327 327 327 327 326 327 328 326 325 325 326 327 326 326 325 325 324 323 324 324 325 325 324 324 324 324 324 325 324 327 328 328 329 330 330 330 332 335 335 334 336 336 335 336 337 336 335 336 336 336 336 336 336 336 337 337 337 337 338 338 338 338 339 339 339 339 335 334 335 335 337 337 336 337 337 337 337 337 337 336 335 335
328 327 327 327 327 327 327 327 327 327 326 325 325 325 326 326 326 325 324 324 324 324 324 325 324 324 324 325 325 324 324 324 327 327 327 328 329 329 330 331 333 334 335 335 335 336 336 337 336 336 336 336 336 336 336 336 336 336 336 336 337 337 338 338 338 338 338 338 338 335 334 335 335 336 338 337 337 337 336 336 337 337 337 335 334
329 327 327 327 327 327 327 327 327 327 326 326 325 325 326 326 326 325 324 324 324 323 324 325 323 324 325 326 326 325 325 326 327 327 326 328 328 328 329 330 331 332 335 334 334 335 335 336 336 336 336 336 336 336 336 336 336 336 336 336 336 337 337 337 337 338 337 337 337 334 332 333 335 336 337 337 337 337 335 335 337 337 337 335 335
330 329 328 328 327 327 327 327 327 326 326 326 324 324 326 326 325 325 325 323 324 323 324 325 323 323 324 325 326 326 326 326 327 327 328 328 327 328 328 328 329 330 333 334 333 334 334 335 336 336 336 336 336 337 337 336 336 335 335 336 336 337 337 337 337 337 336 336 337 334 331 332 334 335 336 337 338 338 337 336 336 336 337 336 336
332 330 329 328 328 327 327 327 326 326 326 326 323 324 326 326 326 325 325 324 324 324 324 324 323 322 323 324 325 326 326 326 327 327 327 326 326 327 327 328 328 329 331 331 332 333 333 334 335 335 336 336 337 336 337 336 336 336 335 336 337 337 337 337 337 336 336 336 337 335 331 330 333 334 334 336 337 337 337 336 336 336 336 336 336
333 332 330 329 328 327 328 327 326 326 326 326 324 324 326 326 326 325 325 324 324 324 323 323 323 321 322 324 324 325 325 325 325 325 325 325 325 326 327 327 327 328 328 329 330 331 333 334 334 335 335 336 336 335 336 336 336 336 336 336 337 337 337 337 337 337 337 336 337 337 334 330 331 333 334 335 337 337 337 336 336 336 335 336 336
333 332 330 329 328 328 328 327 326 326 326 327 325 326 327 327 326 325 324 324 324 324 322 322 322 321 322 324 324 324 324 324 324 324 324 324 324 325 326 326 326 327 327 328 329 329 332 334 334 335 335 335 335 335 336 336 336 336 336 337 337 337 337 337 337 337 337 337 337 337 337 333 331 333 335 335 336 336 336 336 336 336 336 336 336
333 332 331 329 329 329 328 327 326 325 325 327 327 327 328 327 326 326 324 324 324 323 322 321 321 321 323 324 324 323 323 323 323 323 323 324 324 324 325 326 326 327 327 327 328 329 331 332 332 333 333 333 334 334 335 335 336 336 335 336 336 336 337 337 337 336 337 337 337 338 338 337 334 332 334 334 334 335 335 336 336 336 336 336 336
332 332 331 330 331 329 328 327 325 324 326 327 328 328 328 327 326 325 324 324 324 323 322 321 320 321 322 323 323 323 323 323 323 323 323 323 324 324 325 325 326 327 327 328 328 328 329 330 330 330 330 331 331 332 333 334 335 335 336 335 335 335 336 336 337 337 337 337 338 338 338 338 337 334 333 333 334 335 334 335 336 335 336 336 336
332 332 332 332 331 329 328 327 324 325 327 328 328 329 328 328 327 325 324 324 324 323 322 321 320 320 321 322 323 323 323 323 323 323 322 323 323 324 324 325 325 326 326 327 327 327 328 328 328 329 329 329 329 330 331 333 334 335 335 335 335 335 335 336 336 336 336 337 337 338 338 338 338 337 336 334 334 334 334 334 335 335 335 335 335
332 332 333 332 331 330 328 327 325 326 328 328 329 329 328 329 327 325 324 324 324 324 322 321 321 320 320 321 322 322 322 322 323 323 322 322 322 323 323 323 324 324 325 326 326 326 327 327 327 328 328 328 328 329 330 332 334 334 334 335 335 335 335 335 335 335 336 337 337 337 337 337 337 338 337 337 335 334 334 335 335 335 335 335 335
333 333 333 333 331 330 328 328 327 327 329 329 329 330 329 329 328 325 325 325 324 324 323 322 321 320 320 320 321 322 322 322 322 322 322 322 322 322 322 323 323 323 324 325 325 325 326 326 327 327 327 328 327 328 329 331 333 334 333 334 335 335 336 335 335 335 336 336 337 337 337 336 336 336 336 338 337 335 334 334 335 335 335 335 335
333 334 334 333 332 331 329 328 328 328 329 330 330 330 330 329 328 326 325 325 324 324 323 322 321 321 320 320 322 322 322 322 321 322 322 322 322 322 322 322 322 322 323 323 323 324 325 326 326 326 326 327 327 328 329 330 332 333 334 334 334 335 336 336 336 335 336 336 336 336 336 336 335 334 335 336 337 336 335 334 335 334 335 335 335
333 333 333 333 332 331 330 329 328 328 329 330 330 330 330 329 328 327 326 325 325 325 324 323 322 322 321 321 322 322 322 322 322 322 322 321 321 321 321 321 321 321 321 321 322 322 323 324 325 326 326 326 326 327 328 329 331 333 334 334 334 335 336 336 336 335 335 335 335 335 335 335 335 334 335 335 336 336 336 335 335 334 335 335 334
333 333 333 333 331 331 330 329 329 329 329 330 330 330 329 329 328 328 327 326 325 325 325 324 323 322 322 322 322 322 322 321 321 321 322 321 321 321 321 321 321 320 320 320 321 321 322 323 323 325 325 325 325 327 328 329 330 331 332 334 335 335 335 334 334 334 334 334 334 333 334 334 334 334 334 336 335 335 337 336 335 335 335 335 334
334 334 333 333 331 330 331 330 330 329 328 329 329 329 329 328 328 328 328 327 327 327 326 325 324 323 323 323 323 322 322 322 321 321 321 321 321 320 321 320 320 320 320 319 320 320 321 322 323 323 324 324 325 327 329 329 330 331 331 333 335 334 333 332 332 332 332 332 332 332 333 333 333 334 334 336 335 334 336 336 336 336 336 335 334
334 334 333 332 331 330 330 330 330 329 328 329 329 328 328 328 328 328 328 328 328 327 327 326 325 324 324 324 323 323 322 322 321 320 321 320 320 320 320 320 320 320 319 319 319 320 320 321 322 322 322 323 324 326 329 329 330 331 332 333 333 332 331 331 330 330 330 331 331 331 332 332 332 333 333 335 335 335 335 336 336 335 335 336 335
335 334 333 332 331 330 330 330 330 329 329 329 329 328 328 328 328 329 328 328 328 327 327 327 326 325 324 324 324 323 322 322 322 321 320 320 320 320 320 320 320 319 319 318 318 319 319 320 321 321 322 322 323 325 328 329 329 330 332 332 331 331 331 330 330 330 330 330 330 330 331 331 332 332 333 333 334 335 335 335 335 335 335 335 335
334 333 332 332 331 331 331 331 330 329 329 329 329 329 328 329 329 330 329 329 329 329 328 328 328 327 326 324 324 323 323 322 321 321 320 320 320 320 320 319 319 319 318 318 318 319 319 319 320 321 322 322 322 323 325 327 328 328 330 330 329 330 330 330 330 329 329 330 329 329 329 330 331 331 332 331 332 333 334 334 334 335 335 334 334
334 333 332 332 331 331 331 331 330 330 330 330 329 329 329 329 329 330 329 329 329 330 330 330 328 327 326 325 325 324 323 322 321 320 320 320 320 320 319 319 319 318 318 319 318 318 319 319 320 320 320 321 322 322 323 325 327 328 329 329 328 328 329 330 330 329 329 329 328 328 328 329 330 330 330 331 331 332 333 333 333 334 334 334 333
334 333 332 332 332 332 331 331 331 331 331 331 330 330 330 330 330 330 331 331 330 330 330 329 327 327 327 326 325 325 324 323 322 321 320 321 320 320 319 319 319 318 318 318 318 318 318 318 319 319 319 320 321 321 321 323 325 327 328 329 329 328 328 328 329 329 328 328 328 328 327 328 329 329 329 330 331 333 333 333 333 333 333 334 334
334 333 333 332 332 332 331 331 331 331 331 331 331 331 331 330 330 330 330 330 329 329 329 328 328 328 328 327 326 325 325 324 323 322 321 321 321 320 319 318 318 318 317 318 318 318 318 318 318 318 319 319 320 320 321 321 322 324 325 327 328 328 328 328 328 328 328 328 327 327 327 327 328 327 328 329 330 333 334 333 334 333 333 334 334
333 333 333 333 332 332 332 332 332 332 332 332 332 332 331 330 330 329 329 329 328 329 329 330 331 330 329 329 327 326 326 325 324 323 322 322 321 320 320 318 318 318 317 317 318 318 317 317 318 318 319 319 319 320 320 320 321 321 323 324 325 326 326 326 326 326 326 327 327 327 326 326 327 326 327 329 329 332 334 334 334 334 333 333 333
333 333 333 333 333 333 333 333 332 332 333 333 333 332 331 331 330 330 330 330 329 329 330 330 331 331 330 330 328 327 326 326 325 324 322 322 321 320 320 319 319 318 318 317 317 317 317 317 318 318 318 318 319 319 319 319 320 320 321 322 322 323 323 324 324 324 324 325 325 325 325 325 326 326 326 328 329 330 331 332 332 333 333 333 333
334 334 333 333 334 334 334 334 334 334 334 334 333 333 332 331 331 330 330 329 329 330 329 329 330 331 331 330 329 327 327 326 325 325 323 322 321 321 320 320 320 319 318 318 317 316 316 317 318 318 318 318 318 318 318 319 319 319 320 320 320 321 321 321 321 322 322 322 322 323 323 323 325 326 324 326 328 329 329 330 329 330 330 331 332
336 334 334 333 334 335 334 335 336 336 336 336 335 334 333 332 331 330 330 330 329 330 329 329 330 330 330 330 329 328 327 327 326 325 324 323 322 321 320 320 320 319 319 318 317 316 316 317 317 317 317 317 318 318 317 318 318 318 319 319 319 319 320 320 320 320 320 321 321 322 323 323 323 325 324 324 327 328 328 328 328 328 328 329 330
336 335 334 333 333 335 335 336 337 337 337 336 336 335 335 333 332 331 331 330 330 330 330 330 330 330 329 330 329 328 328 327 326 326 325 324 323 322 321 320 320 319 319 319 318 316 316 317 317 317 316 317 317 317 317 317 318 318 318 318 319 319 319 319 319 319 320 321 321 321 323 322 322 323 322 322 325 326 327 328 327 327 327 327 328
Wind_Speed
7 9 10 10 10 10 10 11 11 10 10 10 9 9 9 9 8 7 6 6 5 5 5 5 6 6 6 6 5 4 5 5 5 5 5 5 5 5 4 4 3 4 5 5 4 4 3 3 2 2 4 5 6 8 9 10 10 9 8 6 4 3 1 1 3 3 4 5 6 8 8 10 10 10 11 10 10 12 15 16 15 15 17 21 22
9 10 11 11 11 10 11 10 10 9 9 9 9 9 9 9 9 9 8 6 6 5 5 5 6 6 6 6 5 5 4 4 5 5 5 5 5 5 4 4 5 5 5 4 3 3 3 2 2 1 4 5 5 5 5 4 4 2 0 2 3 3 3 3 5 5 5 6 7 9 9 11 11 11 13 12 10 11 13 16 14 14 18 20 20
11 12 13 12 12 11 11 10 10 9 9 9 9 9 9 9 9 9 9 7 6 6 6 6 6 6 6 5 5 5 4 4 5 4 4 4 5 5 5 5 6 6 5 3 2 3 2 1 1 1 3 3 0 0 0 1 2 3 5 7 6 6 7 5 6 7 6 6 7 9 10 10 11 12 14 13 12 12 13 15 13 14 18 18 19
12 13 13 12 11 12 12 10 9 9 8 8 9 9 8 9 8 8 8 7 7 7 7 7 6 5 5 5 5 5 4 4 4 4 4 4 5 5 5 6 7 6 5 3 2 2 1 1 2 2 1 1 2 0 0 1 2 3 3 4 4 5 6 5 8 8 5 5 6 7 9 10 10 11 13 14 14 14 13 13 14 16 18 17 18
11 12 12 11 10 11 11 9 9 8 8 8 8 8 8 7 7 7 7 7 8 8 8 8 7 5 5 5 5 5 4 4 4 4 4 4 5 5 6 7 6 6 5 3 4 3 2 2 2 2 1 2 2 1 2 2 2 2 3 5 5 6 6 6 9 8 5 5 4 4 7 10 10 11 13 15 14 13 12 12 14 16 16 16 17
10 11 11 11 10 10 10 9 8 8 8 8 7 7 7 6 6 7 7 7 7 8 8 8 7 6 5 4 4 4 4 4 4 4 4 4 4 5 6 6 6 6 5 4 4 3 3 3 3 2 2 1 2 2 3 3 2 2 4 6 7 8 8 9 9 6 6 5 3 3 7 10 9 11 14 15 14 12 11 12 13 14 15 15 15
10 10 10 9 9 9 9 9 8 8 8 8 7 7 6 7 7 7 7 7 8 7 7 7 7 6 5 4 4 4 4 4 4 4 4 4 4 4 5 5 6 6 5 4 3 3 3 3 2 2 2 1 2 3 3 4 3 3 4 7 8 9 10 11 9 6 6 6 4 4 8 10 8 10 14 15 13 11 11 12 12 13 14 14 15
10 10 10 10 9 9 8 9 8 8 8 7 7 7 7 8 8 8 8 8 7 7 7 7 6 6 5 4 4 4 4 4 5 5 4 4 4 4 4 5 6 6 5 4 2 2 2 2 2 2 3 2 1 2 3 3 3 5 5 8 9 11 12 11 9 6 6 6 4 4 8 11 8 10 13 13 12 11 12 11 12 13 14 15 15
9 9 9 10 9 8 8 8 8 8 7 7 7 8 8 8 8 8 8 8 8 8 8 7 6 6 6 5 4 4 4 4 4 4 5 4 4 4 3 4 5 5 5 4 2 1 1 2 2 2 3 2 2 2 3 3 3 5 7 9 10 11 13 11 9 6 6 4 2 3 6 10 9 9 12 12 10 11 12 12 13 14 14 16 16
9 9 9 10 9 8 9 8 8 9 8 9 9 9 9 9 8 9 9 8 8 8 8 7 7 6 7 6 5 4 4 4 3 4 4 4 4 4 4 3 4 4 4 4 2 1 1 2 2 2 2 2 2 2 2 3 4 6 7 10 9 11 13 10 9 7 6 4 2 3 5 8 9 10 11 12 11 11 12 12 13 14 14 16 17
10 10 10 11 12 11 11 10 10 10 10 10 10 9 9 9 9 9 9 9 9 9 9 8 7 7 7 6 6 5 4 3 3 3 3 3 4 3 4 4 3 3 4 3 2 1 1 1 2 2 2 2 3 2 2 3 5 6 6 8 8 10 10 8 8 7 6 4 4 4 6 8 10 12 13 13 13 13 13 12 12 14 15 16 17
11 11 11 12 13 12 12 11 11 11 11 10 10 9 9 8 9 9 9 9 9 9 9 9 8 7 7 6 6 5 4 3 3 3 3 3 3 3 4 4 4 4 4 3 2 1 3 2 1 2 3 3 3 3 3 3 4 5 5 7 8 9 9 7 7 7 5 5 5 5 7 9 11 14 15 15 15 15 14 13 13 15 17 17 17
12 12 11 12 12 12 12 12 11 11 10 9 8 7 7 7 8 8 8 9 9 10 10 10 9 8 7 7 6 5 4 3 3 3 3 3 3 3 3 3 4 5 4 3 2 3 3 2 1 1 2 3 3 3 3 3 2 3 5 8 7 7 9 8 7 7 5 5 6 4 6 10 11 15 16 15 15 15 14 14 15 17 18 17 17
12 11 10 11 11 10 10 10 9 8 8 7 6 5 6 7 8 8 7 7 8 10 10 10 10 9 8 8 7 6 4 3 3 3 3 3 3 3 3 3 3 5 5 3 3 3 3 2 1 2 2 2 2 2 3 3 2 3 6 8 6 5 7 8 8 7 5 6 5 4 8 9 11 14 15 15 15 14 14 15 16 17 18 17 17
11 10 9 9 9 8 8 7 6 6 5 5 5 5 5 6 7 7 6 7 8 9 10 10 10 9 9 9 8 8 6 4 4 3 3 3 3 3 3 2 3 4 4 4 4 4 3 3 1 2 2 1 3 3 3 3 2 3 5 7 6 5 6 6 7 8 6 6 5 5 8 9 11 15 15 15 15 13 14 15 16 17 18 17 17
10 9 9 9 8 7 7 7 6 5 4 5 6 6 6 5 5 5 6 7 8 9 10 10 9 9 8 8 8 8 8 6 5 3 4 3 3 3 3 2 2 3 4 4 5 4 2 2 2 1 1 1 3 3 2 3 3 3 5 6 7 6 6 5 5 8 6 4 4 5 7 8 11 14 15 14 13 12 13 14 15 17 18 17 17
9 8 9 8 7 7 8 8 7 6 6 6 7 7 6 6 5 5 6 8 9 10 10 10 9 8 8 8 7 8 8 8 6 4 4 4 3 4 4 2 3 4 4 4 4 4 3 3 3 1 1 2 3 4 3 3 4 4 5 5 6 6 6 5 2 6 6 3 3 4 6 7 10 13 14 13 12 10 11 12 14 17 17 16 16
8 8 8 7 7 8 8 8 8 7 7 7 7 7 6 6 6 6 7 9 10 10 10 9 9 9 8 7 6 7 7 7 7 5 4 4 4 4 4 3 3 4 4 4 4 4 4 4 4 2 1 1 2 3 3 3 4 4 4 4 5 5 5 4 2 3 4 3 3 4 5 6 8 12 13 11 9 9 8 9 12 15 15 15 15
8 7 7 7 7 8 8 7 7 6 6 6 7 6 5 6 7 8 9 10 11 11 11 10 10 9 9 7 6 6 6 6 6 5 5 4 4 4 4 3 2 3 4 4 3 3 4 5 4 3 2 1 1 2 2 2 3 3 4 3 4 4 3 3 2 1 2 3 4 4 5 6 7 10 11 8 7 7 8 8 10 13 13 13 14
7 7 7 7 7 7 6 6 6 6 6 6 6 6 6 7 8 10 11 12 13 14 13 11 11 10 10 9 6 6 6 6 5 5 5 5 4 4 4 3 2 2 3 4 4 4 3 3 4 4 3 2 2 2 1 1 1 2 3 2 2 3 2 1 1 1 2 2 2 3 4 5 5 6 6 8 8 8 9 9 11 14 13 13 13
7 7 7 7 7 6 6 6 6 6 6 6 6 6 8 9 9 11 13 15 16 15 13 12 11 11 11 10 7 6 5 5 6 6 5 4 5 4 4 3 2 2 3 3 4 4 3 2 3 3 3 3 2 2 1 1 0 1 1 2 2 1 2 1 1 1 2 1 1 3 4 3 2 4 6 8 10 10 10 10 11 14 14 12 13
6 7 7 7 6 6 6 6 6 7 7 7 7 7 7 8 8 10 13 15 15 15 13 12 12 11 11 10 8 6 5 5 6 6 5 4 4 4 4 4 3 3 3 3 4 3 2 2 3 3 3 2 1 2 2 2 2 1 0 1 1 1 1 1 2 2 2 2 2 4 5 2 2 4 5 7 9 11 11 10 11 15 15 13 14
5 6 7 6 5 6 6 6 6 7 7 6 6 6 6 6 7 8 11 13 13 13 12 12 13 12 11 10 9 7 6 5 5 6 5 4 4 4 4 5 5 5 3 3 4 3 3 3 3 3 4 4 2 2 2 1 2 2 2 1 0 1 1 1 2 2 3 2 2 5 4 1 3 3 5 7 9 10 11 11 11 15 16 14 15
5 6 6 5 4 5 5 5 5 5 5 5 5 5 6 6 7 8 10 11 12 12 12 12 13 13 12 11 10 9 6 4 5 5 5 4 3 3 5 5 6 6 5 4 5 4 4 4 5 5 4 5 3 3 2 1 2 2 1 1 1 1 1 1 2 2 3 2 3 5 3 0 3 3 6 7 7 8 10 10 11 15 18 16 16
5 5 5 5 4 4 4 4 4 4 4 4 4 5 5 6 7 8 9 11 11 12 11 11 14 15 14 12 11 9 6 4 5 5 4 3 3 3 3 4 4 5 5 4 4 4 4 4 5 5 4 4 4 3 3 2 2 1 1 1 1 1 1 1 1 2 3 2 4 4 3 1 3 5 6 7 7 8 9 10 11 15 18 18 17
4 4 5 5 4 4 4 4 4 3 4 4 4 4 5 6 7 8 9 10 11 11 11 11 13 15 15 14 12 10 8 5 5 5 5 4 4 4 3 4 4 5 5 4 4 4 4 4 4 4 4 4 4 5 4 3 2 2 1 1 1 1 1 2 2 2 3 2 4 5 2 2 4 6 6 7 9 9 9 10 12 14 17 19 18
4 4 5 5 5 4 4 3 3 3 3 3 4 4 5 5 6 7 9 10 11 11 11 11 13 14 14 14 12 11 9 7 5 5 6 5 5 5 5 5 4 5 6 5 5 4 4 4 4 3 4 3 4 4 4 4 3 3 2 2 1 1 1 2 2 1 2 2 4 5 3 3 4 6 7 8 10 10 10 10 11 13 16 19 19
3 4 4 5 5 5 4 3 3 2 2 3 4 4 4 5 5 6 8 10 10 11 11 10 12 13 13 13 12 12 10 8 8 7 7 7 7 7 6 6 5 6 6 5 5 4 4 4 4 3 3 3 4 4 4 4 3 3 2 2 1 2 2 2 2 1 2 2 2 4 5 4 5 6 7 8 9 10 11 10 11 12 14 17 19
3 4 5 5 6 6 4 3 2 2 2 2 3 4 4 4 5 6 7 9 10 10 10 10 11 12 12 12 12 12 11 10 10 9 8 9 9 9 8 7 6 6 6 6 5 5 4 4 4 4 3 3 4 4 4 4 3 3 2 2 2 2 2 2 2 2 2 2 1 3 5 4 4 6 8 8 9 10 11 11 11 12 13 16 19
5 5 5 5 6 6 5 3 2 2 2 1 2 4 4 3 4 5 6 8 9 9 10 10 11 12 13 12 11 11 11 11 10 9 9 9 8 8 9 8 7 7 6 6 6 5 4 4 4 4 3 3 4 4 4 3 3 3 2 2 2 2 2 2 2 2 2 2 2 3 6 6 4 5 6 8 9 9 10 10 10 12 13 14 18
5 6 6 5 7 7 5 4 2 3 3 1 1 3 3 3 3 4 6 8 8 9 10 10 10 12 13 12 11 11 10 10 10 9 8 8 8 8 8 8 8 8 7 6 6 5 5 4 4 4 3 3 3 4 3 3 3 3 2 2 2 2 2 2 2 2 1 2 2 2 4 5 4 4 5 6 7 8 9 9 10 12 11 12 17
6 6 6 6 7 8 6 4 1 4 3 2 1 2 3 2 2 3 5 7 8 9 10 10 11 12 12 12 11 11 11 10 10 9 9 8 8 8 7 8 8 8 8 7 6 5 5 5 4 4 4 3 3 3 2 2 3 3 3 2 3 3 2 2 2 1 0 1 1 2 2 3 3 3 4 4 5 7 7 8 9 10 10 12 16
5 6 6 7 8 8 6 5 2 5 2 2 2 2 2 2 2 3 5 6 7 8 10 10 11 12 12 12 11 11 11 11 11 10 9 9 9 9 8 8 9 9 9 8 6 5 5 5 5 4 4 4 3 3 3 2 2 2 2 3 3 3 2 2 1 1 0 0 1 1 1 1 2 2 3 4 5 5 6 7 7 7 9 11 14
4 6 8 8 9 8 6 6 3 3 2 2 2 1 2 2 2 3 4 5 6 7 9 10 12 13 12 12 12 11 11 10 10 10 9 8 8 9 9 9 10 9 9 9 7 6 6 6 6 5 5 5 4 4 3 2 2 2 2 2 2 3 2 1 1 0 0 0 1 1 1 1 1 2 2 3 4 5 7 7 6 6 8 10 12
4 6 8 9 9 8 7 5 3 1 3 3 2 1 2 2 3 4 4 5 5 6 8 9 11 12 12 13 12 12 12 10 10 9 9 8 8 8 9 9 9 8 9 9 8 7 7 7 6 6 5 5 5 5 3 3 2 2 2 2 1 2 2 1 1 0 0 1 0 0 0 1 1 1 1 2 3 5 7 7 6 6 8 10 10
5 6 8 9 9 8 7 5 2 2 3 2 2 1 1 2 3 3 3 4 4 5 6 8 10 11 12 13 12 12 12 11 10 9 8 8 8 8 9 9 8 7 7 8 7 8 8 8 7 7 6 5 5 5 3 2 2 3 2 2 1 0 0 1 1 0 0 0 0 0 0 0 1 1 1 1 2 5 6 6 7 6 7 9 10
6 7 8 9 9 9 8 5 3 3 4 3 3 2 1 1 3 2 2 2 4 4 5 7 8 9 11 12 12 12 12 12 11 9 8 8 8 8 9 9 8 7 7 6 6 6 7 8 7 7 7 6 5 5 4 2 2 3 2 1 1 1 2 2 1 1 0 0 0 0 0 0 1 1 1 1 2 3 4 4 5 7 7 8 9
6 8 9 9 9 8 8 6 4 4 4 4 3 3 2 1 2 2 1 1 2 3 3 5 6 8 9 10 11 11 12 12 12 10 8 8 7 8 8 8 8 8 7 6 6 6 7 7 6 6 6 6 6 6 4 2 2 3 3 3 3 3 4 3 2 2 1 1 1 1 1 1 1 1 1 1 1 1 1 2 3 4 6 7 8
6 8 9 9 8 8 8 7 5 5 5 5 4 3 3 1 1 1 0 0 1 2 2 3 4 6 7 8 9 10 11 12 12 11 9 8 7 7 8 8 8 8 8 7 6 7 7 7 6 6 6 5 6 7 5 2 2 4 4 5 5 5 5 4 4 3 3 3 2 3 2 2 1 1 1 1 1 0 1 2 2 2 4 6 8
6 7 9 9 9 8 8 7 6 6 6 5 5 4 3 2 2 2 1 1 1 1 2 2 3 4 5 5 7 9 10 12 12 12 10 8 8 8 8 8 8 8 8 8 8 7 7 7 5 5 5 4 6 7 7 3 1 4 5 6 6 6 6 6 5 4 3 4 4 4 4 3 3 2 2 1 1 1 0 1 2 2 3 5 7
7 8 9 9 8 8 8 7 7 6 6 6 5 4 3 3 2 2 2 1 1 1 2 2 2 3 3 4 5 7 9 10 12 12 11 9 8 8 8 8 8 8 8 8 8 7 8 8 6 4 5 5 6 8 9 5 1 3 4 5 6 6 6 6 6 5 4 5 5 6 5 5 4 4 3 2 1 1 1 1 1 2 3 4 5
8 9 9 8 8 8 8 6 6 6 6 6 5 4 3 3 3 3 3 2 1 2 2 2 2 2 2 2 4 6 8 9 10 11 12 11 8 8 8 8 9 8 8 8 8 7 7 8 7 5 4 5 6 8 11 7 1 2 2 3 4 5 5 5 6 6 5 5 6 6 6 6 6 5 4 2 2 1 1 1 1 2 3 4 4
8 9 8 7 7 8 7 6 5 6 6 6 5 4 3 3 3 4 3 3 2 2 2 2 2 1 1 2 3 5 7 8 9 9 11 11 9 8 8 8 9 8 8 8 8 8 7 8 7 6 5 4 5 8 10 9 4 2 3 3 2 2 3 3 4 5 5 5 6 6 6 6 7 6 5 4 3 2 1 2 2 2 3 3 3
8 8 8 8 7 8 7 6 5 5 5 6 6 5 4 4 4 3 3 3 2 2 2 1 1 1 1 2 2 3 5 7 8 9 10 10 9 8 8 8 9 9 8 9 9 9 8 8 8 7 6 5 5 6 8 8 7 6 3 3 3 2 2 1 2 2 3 4 5 6 6 6 7 7 6 6 5 4 2 2 3 2 3 3 2
8 8 8 8 7 7 7 6 5 5 5 6 6 5 5 5 5 4 4 4 3 2 2 2 2 2 2 2 2 2 3 5 6 8 8 9 8 8 8 8 8 9 8 9 9 9 9 9 8 8 7 6 5 5 6 6 7 8 6 3 2 2 1 1 1 0 1 1 4 5 6 7 7 7 7 7 6 5 4 3 3 3 3 3 2
8 8 8 8 7 6 6 6 5 5 5 5 6 6 6 5 5 5 4 3 3 2 2 3 2 2 2 2 2 2 2 3 4 6 7 8 8 7 7 8 8 8 8 8 8 9 9 9 9 8 8 7 5 5 5 5 6 7 7 7 5 4 4 4 4 2 1 1 2 3 3 5 6 7 7 7 7 6 5 4 4 4 4 3 3
8 8 8 7 6 6 5 5 5 5 5 5 6 6 6 6 6 5 5 4 3 3 2 3 3 3 3 3 3 2 2 2 3 4 5 6 7 6 6 7 8 7 7 7 8 8 9 9 9 8 8 8 6 5 5 5 4 5 6 6 7 7 6 5 4 4 2 2 1 2 1 4 4 6 7 7 7 7 6 5 5 5 4 4 4
7 8 8 8 7 6 6 6 5 5 5 5 6 6 6 6 6 6 5 5 5 4 3 3 3 3 4 4 3 3 2 1 2 3 3 4 5 5 5 6 7 6 6 7 8 8 8 9 9 8 8 8 7 6 6 6 5 5 5 5 4 4 5 5 5 5 4 3 2 1 1 4 3 3 6 6 6 6 6 6 6 5 5 5 4
7 8 8 8 7 7 6 6 6 6 6 6 6 6 6 6 6 6 6 5 5 4 4 4 4 4 5 5 4 3 2 2 2 2 2 3 4 4 5 5 6 6 6 6 7 8 8 8 8 8 8 8 8 7 6 6 6 6 5 4 4 3 2 3 4 4 4 4 3 2 4 6 4 2 4 5 5 5 5 6 7 6 6 6 5
7 7 7 7 7 7 7 7 7 6 6 6 6 6 7 7 7 7 7 6 5 5 5 5 5 5 5 5 4 3 2 2 2 1 1 2 2 2 3 4 5 6 5 5 6 7 7 8 8 8 8 8 8 8 7 6 6 6 6 5 5 4 3 3 4 5 4 3 4 4 4 5 4 3 3 4 3 3 4 5 6 7 7 7 6
7 7 7 7 7 7 7 7 7 6 6 6 7 7 7 7 7 7 7 7 6 6 5 5 5 5 5 5 5 4 2 2 2 1 0 0 0 1 2 3 4 5 5 5 5 6 6 7 7 7 8 8 7 7 7 7 6 6 6 6 6 6 5 4 5 5 4 3 4 4 3 5 5 5 4 3 3 2 3 4 5 7 7 7 7
Wind_Direction
77 73 71 81 85 81 79 73 75 72 73 72 69 69 67 66 61 59 58 55 52 51 51 53 54 48 44 37 31 23 21 22 22 26 23 23 20 15 12 357 328 326 333 326 326 328 341 8 12 5 11 14 24 25 20 19 18 18 15 5 350 344 334 185 179 167 161 171 169 165 157 143 140 142 142 141 140 136 136 134 132 130 127 125 123
99 88 80 79 87 85 81 77 78 76 74 74 72 70 68 63 58 55 53 55 54 51 51 55 57 50 43 38 34 27 25 26 29 30 30 29 24 18 7 355 345 352 354 334 334 353 4 5 2 19 29 28 34 26 18 25 27 37 242 214 204 184 155 147 148 143 152 157 154 153 143 138 141 141 138 136 136 132 132 135 134 131 128 126 122
100 93 85 79 84 84 82 79 77 76 74 73 72 68 64 60 56 52 48 50 52 51 48 50 53 52 44 37 34 31 27 26 30 27 30 29 22 15 1 3 2 1 360 349 353 18 27 342 356 42 42 33 344 307 310 199 190 193 203 190 179 167 151 139 129 126 143 148 149 144 130 132 139 136 133 130 132 131 133 135 132 132 130 125 121
96 89 82 76 77 78 79 77 76 74 73 71 66 63 59 57 53 50 46 44 47 47 43 44 47 49 45 36 33 32 28 25 27 21 24 25 19 13 6 10 5 2 6 18 21 35 50 357 42 83 86 253 240 255 37 184 178 194 197 157 133 131 126 118 116 119 137 143 142 137 127 123 125 127 126 127 133 136 136 134 131 132 128 124 126
90 84 83 81 75 76 80 78 77 72 71 68 63 60 56 53 49 47 41 38 43 45 42 40 39 40 42 34 29 30 30 27 24 21 22 25 20 14 15 15 5 7 21 44 37 36 44 46 75 120 148 219 227 82 99 130 149 168 137 108 91 98 98 98 105 115 141 138 124 119 121 116 119 127 126 130 139 141 138 132 131 130 126 127 131
84 84 83 82 75 77 82 79 78 72 68 64 61 58 54 49 43 40 34 34 36 41 41 39 36 35 40 33 27 29 31 30 26 24 23 27 23 17 15 11 7 13 30 50 47 50 59 69 96 147 155 175 162 134 133 134 143 147 129 115 106 103 101 98 100 127 142 109 81 78 100 106 120 131 130 138 142 140 138 133 132 129 127 131 134
85 85 82 81 76 77 81 77 74 66 62 58 55 53 50 46 39 35 29 30 31 34 36 35 34 30 33 31 31 30 30 31 29 27 24 25 22 20 15 10 9 18 36 48 50 60 74 88 102 157 191 209 141 146 140 133 144 139 119 112 106 101 101 102 111 146 127 94 107 118 111 114 126 131 133 138 138 137 137 135 133 131 132 134 135
87 84 82 81 78 82 78 70 65 58 56 51 48 46 45 44 39 35 30 29 28 29 31 29 29 24 23 24 29 27 28 31 29 26 23 20 13 14 17 17 15 20 35 45 46 60 87 114 135 158 194 213 133 152 151 143 138 127 110 100 92 91 96 102 123 144 108 109 137 119 117 121 122 130 134 134 133 138 140 141 140 138 139 139 138
90 83 81 78 80 83 73 64 61 56 54 51 48 45 45 46 42 38 33 31 28 28 29 25 23 20 17 18 22 22 20 22 25 22 19 16 11 9 9 19 23 23 30 42 46 68 122 173 180 175 181 181 183 184 158 145 118 115 108 94 79 85 97 108 128 126 102 125 134 100 131 130 127 136 140 137 138 147 148 150 147 144 146 146 143
88 82 80 74 77 77 71 68 65 60 57 58 58 57 54 51 46 39 34 30 26 24 21 20 15 12 10 10 13 17 12 5 11 13 15 14 13 10 1 7 23 28 24 32 42 90 141 189 179 174 153 147 180 193 150 137 127 120 105 90 76 84 105 126 130 113 106 141 152 147 168 149 139 148 153 147 149 157 156 156 151 150 154 152 149
86 87 83 77 81 80 76 72 71 69 66 65 65 64 61 52 40 34 33 29 24 20 15 11 5 1 0 359 0 5 3 356 358 357 0 3 7 9 4 1 11 25 15 12 14 173 193 193 150 152 141 141 165 169 156 149 141 126 101 84 79 92 113 136 124 109 116 144 174 173 178 164 151 154 158 156 161 165 161 162 160 160 160 154 150
92 93 89 83 87 88 81 76 76 75 72 69 66 63 59 47 35 35 37 34 27 20 14 9 3 358 352 350 351 348 349 350 348 343 334 335 342 353 6 5 359 11 17 12 358 289 248 224 143 156 156 166 178 172 162 159 143 123 100 83 89 113 134 152 127 118 125 158 198 189 177 175 170 165 165 169 174 172 169 171 168 167 163 156 152
99 95 91 87 87 89 86 83 80 77 75 70 66 60 53 39 32 36 36 32 27 22 16 10 4 1 353 351 352 343 338 337 340 336 326 323 326 333 350 358 352 358 10 16 350 319 290 268 185 203 183 172 181 173 156 153 136 115 100 91 102 135 155 162 132 119 138 184 206 196 187 190 186 178 174 178 183 177 176 177 169 168 165 158 154
100 93 91 89 85 85 83 81 79 74 72 65 60 47 36 26 24 28 28 28 26 21 16 10 3 1 357 355 357 349 341 331 333 329 324 319 320 329 338 348 348 348 355 4 335 322 334 324 239 242 245 172 155 150 149 148 141 124 109 105 118 152 165 156 129 132 171 198 196 200 203 206 200 189 184 184 191 185 180 180 169 168 165 158 158
99 97 93 86 79 74 64 64 65 59 55 46 36 20 12 14 21 24 25 27 22 17 13 10 3 358 356 356 356 351 347 338 328 321 316 311 317 329 331 338 345 341 339 350 331 316 355 0 311 244 249 203 165 149 151 146 135 129 123 126 135 158 171 153 139 146 169 184 180 212 213 216 208 195 193 191 196 189 179 180 172 169 166 161 162
98 97 86 75 67 59 51 47 45 37 26 22 20 13 12 20 26 24 26 23 14 9 5 3 0 358 355 352 354 349 345 339 329 317 314 305 308 322 324 326 330 333 320 326 329 324 353 2 349 283 211 179 170 166 162 134 115 116 125 140 151 167 177 166 157 141 146 172 173 221 223 221 214 201 202 198 197 191 181 183 177 171 167 166 168
94 89 76 66 61 62 64 56 48 40 28 25 27 28 34 39 36 30 26 14 5 359 353 350 348 349 349 349 353 351 345 339 332 328 329 317 308 314 321 327 323 325 317 318 330 331 337 336 332 316 182 152 165 173 165 135 121 117 118 136 151 170 182 179 181 135 141 182 173 225 230 223 220 210 210 207 203 201 191 187 182 173 168 170 174
91 85 71 63 68 73 70 61 54 48 45 42 42 43 45 45 38 30 19 9 3 359 354 350 346 344 345 345 348 353 350 340 337 338 340 338 331 323 317 320 323 321 320 322 327 326 332 334 328 320 323 137 163 180 179 157 139 122 110 120 142 162 178 175 197 141 143 176 185 219 232 236 233 218 215 214 212 213 208 198 187 177 172 177 181
92 83 69 68 77 77 69 61 59 55 59 60 58 55 50 46 40 34 25 19 14 10 8 5 0 355 353 349 350 358 355 343 342 342 336 339 341 342 334 322 330 323 315 320 325 326 330 335 328 318 313 313 231 214 199 175 141 119 112 114 130 141 161 173 190 189 166 176 190 206 226 249 241 222 218 217 218 223 219 211 199 185 179 187 189
92 82 76 82 86 82 73 67 66 66 70 72 72 66 58 57 52 45 36 29 23 19 15 10 6 1 0 359 360 1 354 340 338 341 335 341 340 349 358 338 345 331 310 315 325 333 333 329 318 319 307 281 272 268 221 183 138 109 125 144 135 120 144 211 215 229 217 194 199 208 247 267 237 211 209 212 220 224 217 213 207 193 187 195 196
99 87 88 96 94 81 73 69 69 73 77 76 77 75 72 68 56 44 34 29 26 22 16 11 9 5 4 5 5 358 350 341 335 339 335 348 351 349 357 341 342 327 312 314 322 335 347 334 310 327 319 276 273 300 324 314 16 123 152 156 149 166 181 235 301 267 256 245 237 247 283 302 182 182 195 208 218 220 217 215 209 198 192 196 197
101 96 97 98 89 79 73 73 76 77 80 80 79 77 75 64 47 37 29 27 25 22 17 15 14 11 10 9 7 358 350 349 341 342 337 351 5 0 356 343 341 334 309 299 311 323 331 327 307 317 330 328 325 287 295 334 352 8 20 96 142 231 217 281 292 288 284 278 279 266 285 330 113 174 198 208 217 218 216 212 209 203 196 195 195
95 98 102 98 85 82 76 79 81 79 78 74 74 68 59 45 34 29 23 22 19 18 18 17 17 14 14 11 7 359 349 348 342 343 342 347 4 14 16 6 5 3 348 318 318 322 326 329 322 322 339 355 348 299 301 334 351 358 10 24 247 274 303 297 284 288 285 284 293 272 270 338 96 159 202 207 213 215 211 207 208 203 197 196 195
96 102 108 105 94 88 85 86 82 73 67 60 57 49 36 26 23 22 21 21 18 18 18 18 19 17 15 12 7 2 350 348 340 333 335 331 343 15 21 19 17 17 24 10 334 338 355 346 342 347 346 340 329 323 333 338 347 345 327 302 293 318 318 290 282 280 281 282 282 264 255 282 114 173 212 208 206 211 214 213 208 200 196 196 193
110 117 118 118 113 103 97 91 78 67 58 47 44 40 30 21 18 15 17 21 20 19 19 20 22 18 17 15 12 10 1 2 353 335 333 331 338 359 16 25 25 20 28 28 352 348 359 345 342 353 349 340 343 349 350 351 346 321 302 304 314 321 301 283 278 277 280 282 276 259 238 221 157 190 217 207 202 208 216 215 206 200 197 195 192
131 130 127 129 130 120 108 97 83 71 59 42 33 37 29 23 19 15 15 18 20 20 20 22 22 20 20 19 18 20 20 22 12 350 344 339 346 354 6 21 27 23 19 20 15 3 359 353 347 349 348 351 356 357 358 1 348 335 325 304 302 296 276 270 266 266 276 279 281 275 250 209 179 195 210 206 205 206 212 208 201 199 198 196 192
139 133 139 143 145 138 124 106 87 70 62 44 23 24 26 25 20 19 18 17 18 20 22 22 22 22 23 23 22 26 30 33 27 14 3 353 355 359 2 9 16 23 19 17 20 15 12 7 360 355 348 343 346 352 356 359 351 346 331 310 312 277 255 257 256 253 274 280 287 297 290 234 202 203 208 210 207 205 210 206 202 200 198 199 194
143 144 155 156 157 151 139 117 88 64 55 34 18 16 19 25 19 20 20 17 19 20 22 21 22 24 24 24 25 29 33 34 33 28 17 5 358 357 359 5 10 18 21 21 22 22 25 18 11 8 352 339 341 348 348 350 345 338 328 318 305 274 264 256 250 229 256 283 294 308 299 251 223 219 217 220 211 207 211 205 205 205 205 205 197
175 164 170 168 164 158 151 135 95 60 48 20 17 18 15 22 21 21 20 18 21 21 21 22 22 24 24 23 25 28 30 29 27 23 14 7 0 355 356 3 8 11 12 15 19 23 28 27 23 18 6 355 354 352 345 344 336 329 327 320 301 281 275 265 257 242 237 252 251 288 292 271 240 227 224 230 222 215 215 207 204 208 211 207 198
196 182 183 176 166 164 161 148 105 43 18 340 13 18 10 17 24 21 21 21 22 23 24 24 25 26 26 26 26 27 27 25 21 16 11 5 0 355 354 358 2 3 1 3 8 17 27 30 26 21 15 11 9 3 352 344 336 331 332 321 310 296 286 283 274 261 241 241 237 264 286 287 267 239 231 235 229 224 221 211 206 211 217 207 198
201 192 192 179 166 167 164 154 126 11 335 279 350 360 359 12 20 18 26 25 24 27 27 27 29 28 28 28 29 28 28 26 21 17 13 6 359 354 355 358 0 0 359 358 360 12 30 38 35 27 17 14 12 7 360 353 351 345 340 328 316 309 301 304 295 281 254 244 241 243 282 297 286 252 237 234 228 227 222 213 211 214 218 207 202
209 202 195 177 168 170 164 162 184 336 313 237 307 336 353 4 10 18 28 27 27 31 32 33 32 30 28 27 29 28 27 29 26 22 20 18 13 6 9 10 9 7 6 4 2 11 30 41 41 35 24 19 14 8 5 1 5 6 354 341 325 322 318 317 316 300 263 252 256 232 257 305 312 270 234 224 220 223 220 214 218 218 213 204 201
210 199 189 176 171 173 170 176 247 324 281 216 293 326 354 353 10 22 28 30 31 34 35 36 34 33 31 26 27 27 26 28 27 23 22 25 23 19 23 24 19 16 14 12 9 11 20 24 24 23 20 18 18 14 13 25 24 16 1 347 331 322 317 325 345 345 337 233 259 262 255 276 316 302 249 223 210 215 223 218 218 219 216 208 200
199 185 183 180 175 176 179 193 263 326 197 212 280 305 342 342 6 17 29 32 32 36 38 38 34 34 35 31 28 27 25 25 24 23 23 27 30 25 24 24 21 18 17 13 9 12 13 13 12 9 10 9 12 13 15 33 37 24 9 348 324 307 306 330 10 27 337 288 247 263 293 289 290 303 278 250 226 219 225 224 217 210 215 217 209
190 181 181 182 181 184 185 197 265 314 190 215 240 270 330 334 353 12 33 34 32 38 40 39 36 33 35 34 30 29 27 25 24 23 22 26 31 30 24 17 12 12 15 10 6 11 8 8 10 5 6 9 10 11 14 33 42 36 20 348 325 300 302 9 47 88 204 277 255 220 263 328 301 274 261 260 257 246 235 227 221 210 209 217 216
193 187 183 185 187 191 192 200 240 209 197 214 220 254 315 327 345 8 37 37 33 38 42 40 36 33 33 33 31 30 27 25 26 24 22 25 28 30 26 16 10 10 12 7 5 9 3 1 6 4 3 6 10 11 11 38 55 48 34 4 354 300 45 99 117 117 129 249 206 178 189 173 292 273 254 235 247 265 256 233 221 215 208 211 214
200 194 190 189 191 194 196 207 223 203 203 211 217 239 273 323 349 4 34 45 33 36 44 39 37 35 31 32 31 29 27 25 24 23 20 25 28 27 25 19 16 18 15 10 8 9 3 357 359 0 359 358 3 7 6 28 71 77 81 69 70 93 92 95 98 100 98 49 100 115 80 37 296 274 274 256 235 256 274 259 233 222 212 209 209
208 202 199 196 195 196 199 208 216 210 210 214 221 234 252 310 358 4 25 48 30 36 42 38 42 38 32 32 30 27 26 23 21 21 18 22 27 25 24 20 18 19 16 13 11 9 5 355 351 354 354 355 357 358 357 359 96 104 99 85 80 83 87 94 87 80 90 80 75 72 57 40 2 348 312 274 255 239 265 289 270 241 227 224 219
213 205 202 200 199 200 203 208 211 213 215 220 229 240 252 278 342 3 37 271 10 36 36 42 50 44 37 32 30 27 24 22 21 21 20 22 25 23 22 19 17 18 15 15 12 7 2 354 351 354 353 357 357 353 349 339 123 109 98 91 85 84 85 90 87 80 80 78 74 66 59 49 42 25 7 337 287 237 205 248 264 249 249 249 239
209 200 200 203 205 203 202 207 211 214 219 224 231 242 260 281 323 341 341 308 342 38 44 45 50 50 44 32 30 27 23 23 22 22 22 22 23 23 22 18 16 16 16 15 11 5 4 358 354 1 2 2 3 360 349 334 121 106 105 106 96 93 89 82 74 68 67 63 57 58 55 44 42 42 30 23 353 340 321 242 241 223 242 261 254
196 192 196 204 209 207 204 207 211 214 220 228 237 249 271 297 322 335 340 338 338 18 42 42 46 59 54 33 29 27 23 22 22 23 24 23 23 23 22 19 17 16 16 15 11 9 11 6 359 5 14 12 10 6 351 331 175 130 115 116 111 103 95 86 77 65 59 57 55 54 50 43 37 33 28 30 37 9 346 303 273 246 236 250 261
191 190 196 205 207 209 210 211 212 216 223 231 243 256 274 305 322 331 332 333 338 353 13 30 44 70 70 43 33 27 24 23 22 22 23 24 24 22 22 21 19 18 17 16 16 15 16 15 10 9 18 21 19 9 356 345 231 167 161 149 139 127 110 97 85 72 63 56 53 50 45 37 30 27 25 30 52 42 353 327 302 274 255 243 242
197 195 197 202 204 208 213 215 217 220 225 230 239 253 265 292 310 320 323 321 324 331 338 359 16 32 62 44 38 31 25 24 23 21 24 24 23 23 23 21 19 19 19 19 19 19 21 22 20 16 12 25 34 21 10 5 358 314 242 219 196 158 144 121 99 85 75 62 51 44 38 34 26 19 21 21 32 47 26 350 336 312 292 274 245
198 196 195 198 203 209 212 215 220 221 224 228 232 245 258 267 279 292 293 289 291 286 288 312 355 5 34 36 36 33 23 24 23 21 24 23 23 24 23 22 21 20 20 22 23 24 26 26 27 25 17 24 37 34 26 17 6 346 299 247 244 234 206 152 113 96 84 68 58 44 28 28 26 19 19 18 20 31 31 13 0 355 339 321 293
196 194 191 196 202 207 211 213 218 220 221 226 227 233 245 251 256 260 257 259 266 267 281 314 350 7 30 28 24 26 19 21 22 21 23 23 24 26 25 23 22 22 22 25 27 28 30 29 30 33 30 21 16 31 37 28 19 8 359 347 278 244 290 355 333 271 159 58 55 54 29 24 25 18 17 17 20 27 26 23 15 13 14 359 337
194 191 189 195 202 205 209 211 214 219 219 223 225 228 236 244 250 258 264 271 283 285 303 326 343 355 0 355 359 9 17 21 21 21 21 24 26 28 29 26 23 24 23 25 28 28 32 33 30 33 36 22 7 24 34 29 31 24 18 19 14 7 357 340 323 313 217 206 56 72 30 17 22 17 14 15 22 32 32 27 23 20 26 21 5
187 185 186 192 201 205 207 211 216 220 222 222 224 229 236 243 252 265 278 289 299 305 308 318 327 329 326 326 334 348 7 18 20 22 21 24 27 30 32 28 26 27 26 29 30 28 33 35 33 35 38 32 25 30 28 22 29 30 25 21 18 16 3 349 337 327 297 218 164 138 19 357 6 8 8 11 19 34 44 40 31 26 29 28 21
177 179 183 190 199 204 207 213 220 225 227 226 226 232 239 246 253 262 274 283 292 299 297 298 301 303 309 315 319 329 351 7 13 21 22 23 27 32 34 31 28 27 30 34 32 32 36 36 36 38 39 39 36 34 31 25 26 26 22 17 16 20 16 13 359 330 310 286 250 187 318 325 318 351 4 2 9 28 47 52 46 39 40 38 29
173 177 181 187 194 201 208 214 221 226 228 229 232 236 241 250 258 264 271 277 284 288 289 288 286 289 297 305 313 322 336 350 0 11 13 17 24 31 34 33 31 28 31 36 37 38 39 39 40 39 38 42 40 37 37 32 32 26 17 16 13 9 25 32 13 348 325 307 305 310 321 311 280 296 356 348 355 16 33 44 45 40 41 46 43
173 178 182 186 191 201 209 214 222 226 226 227 232 236 240 247 256 263 270 277 283 285 284 282 280 282 289 297 306 314 326 342 357 15 7 3 13 22 28 32 32 31 31 36 40 41 41 42 44 42 39 41 41 40 39 37 39 34 24 21 19 13 11 21 15 2 345 321 319 320 323 322 297 282 326 327 324 356 17 25 31 31 28 35 44
172 178 187 192 195 204 210 215 220 221 223 226 228 233 237 243 252 260 268 276 282 286 285 284 281 281 287 294 301 306 320 331 339 359 330 263 262 349 16 27 28 29 30 35 39 41 41 42 42 44 42 40 41 40 39 40 39 37 33 28 26 24 14 9 8 355 346 340 329 318 330 338 313 295 315 310 283 311 354 2 20 24 16 19 31